Location: Taukkyan
(23.1052°N, 94.0030°E)
Time: 21:30:14
(UTC+00:00)

ADEOS II - Pass Details

Date: 06 July 2020
Orbit: 799 x 801 km, 98.5° (Epoch: 05 August)

Event Time Altitude Azimuth Distance (km) Brightness Sun altitude
Rises 20:06:54 0° 7° (N) 3,305 6.1 -33.3°
Reaches altitude 10° 20:09:15 10° 5° (N) 2,373 5.1 -33.0°
Enters shadow 20:12:27 37° 352° (N) 1,220 3.2 -32.5°
